NOAA 16 DEB, 41146

Orbit data source: Space-Track

NOAA 16 DEB, 41146 is space debris in SSO originally from a launch on Thu, 21 Sep 2000 UTC launched from the Air Force Western Test Range (AFWTR). Debris objects in space refer to the collection of defunct objects orbiting the Earth. Examples of debris include non-operational satellites, rocket bodies, and fragments generated from explosions, collisions, or faulty payload assembly.

Loading next visibility...
Identifier
41146, 2000-055CD
Orbit
SSO
Country
Flag of USUS
Related business
Manufacturer
Unknown
Mission
Spacecraft
Bus & Motor
Unknown
Mass
Unknown
Launch date (UTC)
2000-09-21 (26 years ago)
Launch vehicle
Unknown
Launch site
Air Force Western Test Range (AFWTR)
Object type
Payload
Rocket body
Debris
Shape & HBR
Unknown shape, 0.1 m
Radar Cross Section
Small (<0.1 m²)

Expand to show TLE details & history
Last TLE update: 4 hours ago

TLE from 4 hours ago
0 NOAA 16 DEB
1 41146U 00055CD  26123.29777563  .00018225  00000-0  41677-2 0  9991
2 41146  98.8276 248.5781 0018427 223.1403 136.8350 14.55618800539955
Epoch: 2026-05-03T07:08Z
TLE epoch observation values (Epoch: 2026-05-03T07:08:47.814Z)
Latitude
0.00001°
Longitude
-79.82447°
Altitude
719.851 km
Speed
7.49 km/s
True Right ascension
16h 34m 18s
True Declination
0° 00' 00"
Sunlit
Object was in full shadow at epoch
Visualization orbit readout
Latitude
Unknown
Longitude
Unknown
Altitude
Unknown
Speed
Unknown
Apparent Right ascension
Unknown
Apparent Declination
Unknown
Sunlit
N/A
Visualization observer readout
Local Sidereal Time
18:55:30
Azimuth
Unknown
Elevation
Unknown
Doppler factor
Unknown
Orbital elements
Apogee altitude
717.524 km
Perigee altitude
691.422 km
Semi-major axis
7,082.61 km
Eccentricity
0.00184
Inclination
98.8276°
RAAN
248.5781°
Arg. of periapsis
223.1403°
True anomaly
136.97921°
Mean anomaly
136.835°
Eccentric anomaly
136.90713°
Mean motion
3.64127 °/min
Orbital period
98.87 mins
BSTAR
0.0041677
Loading maneuver chart data...
Computing Atmospheric mass density...

Documentation

Showing up to 5 results
|